Home   Weather   Bucharest   Past weeks
Flag for Romania

Past Weather in Bucharest, Romania — Yesterday and Last 2 Weeks

Now
66 °F

Sunny.


Feels Like: 66 °F
Forecast: 83 / 58 °F
Wind: 3 mph from Northeast

Location: Bucharest / Imh

Current Time: May 27, 2019 at 8:51:03 am

Latest Report: May 27, 2019 at 8:00 am


Visibility: 10 mi

Pressure: 30.01 "Hg

Humidity: 83%

Dew Point: 61 °F

Location of BucharestLocation

Past Weather in Bucharest — Graph

°F

Bucharest Temperature Yesterday

Maximum temperature yesterday: 79 °F (at 2:30 pm)
Minimum temperature yesterday: 55 °F (at 6:00 am)
Average temperature yesterday: 69 °F

High & Low Weather Summary for the Past Weeks

 TemperatureHumidityPressure
High81 °F (May 19, 3:00 pm)100% (May 13, 7:00 am)30.15 "Hg (May 13, 7:00 am)
Low52 °F (May 13, 2:00 am)38% (May 21, 6:30 pm)29.68 "Hg (May 20, 5:00 pm)
Average64 °F76%29.89 "Hg
* Reported May 12 7:00 am — May 27 7:30 am, Bucharest. Weather by CustomWeather, © 2019

Note: Actual official high and low records may vary slightly from our data, if they occured in-between our weather recording intervals... More about our weather records

Advertising

Bucharest Weather History for the Previous 24 Hours

Scroll right to see more
 ConditionsComfort  
Time TempWeatherWind HumidityBarometerVisibility
7:30 am
Mon, May 27
64 °FSunny.3 mph83%30.01 "Hg10 mi
7:00 am61 °FSunny.2 mph94%29.98 "Hg10 mi
6:30 am59 °FFog.2 mph88%29.98 "Hg6 mi
6:00 am57 °FLight fog.No wind94%29.98 "Hg5 mi
5:30 am57 °FFog.No wind94%30.01 "Hg5 mi
5:00 am59 °FFog.No wind94%30.01 "Hg5 mi
4:30 am59 °FFog.No wind94%30.01 "Hg6 mi
4:00 am59 °FClear.No wind94%30.01 "Hg6 mi
3:30 am59 °FClear.No wind94%30.01 "Hg10 mi
3:00 am57 °FClear.2 mph94%30.01 "Hg10 mi
2:30 am59 °FClear.No wind88%30.01 "Hg10 mi
2:00 am61 °FClear.No wind88%30.01 "Hg10 mi
1:30 am59 °FClear.No wind94%30.01 "Hg10 mi
1:00 am63 °FClear.No wind88%30.01 "Hg10 mi
12:30 am64 °FClear.1 mph83%30.01 "Hg10 mi
12:00 am64 °FClear.No wind83%30.01 "Hg10 mi
11:30 pm
Sun, May 26
66 °FClear.No wind78%30.01 "Hg10 mi
11:00 pm64 °FClear.No wind83%30.01 "Hg10 mi
10:30 pm68 °FClear.No wind73%30.01 "Hg10 mi
10:00 pm68 °FClear.2 mph73%30.01 "Hg10 mi
9:30 pm73 °FClear.1 mph61%29.98 "Hg10 mi
9:00 pm75 °FClear.1 mph54%29.98 "Hg10 mi
8:30 pm75 °FSunny.3 mph54%29.98 "Hg10 mi
8:00 pm77 °FSunny.6 mph47%29.98 "Hg10 mi
7:30 pm77 °FSunny.6 mph51%29.98 "Hg10 mi
7:00 pm79 °FPassing clouds.6 mph45%29.98 "HgN/A
6:30 pm79 °FPassing clouds.8 mph45%29.98 "HgN/A
6:00 pm79 °FPassing clouds.7 mph48%29.98 "HgN/A
5:30 pm79 °FPassing clouds.7 mph48%29.98 "HgN/A
4:30 pm79 °FPassing clouds.6 mph51%29.98 "HgN/A
4:00 pm77 °FScattered clouds.8 mph51%29.98 "HgN/A
3:30 pm77 °FPassing clouds.6 mph51%29.98 "HgN/A
3:00 pm79 °FPassing clouds.8 mph48%30.01 "HgN/A
2:30 pm79 °FPassing clouds.7 mph51%30.01 "HgN/A
2:00 pm77 °FSunny.3 mph51%30.01 "Hg10 mi
1:30 pm77 °FScattered clouds.7 mph51%30.01 "HgN/A
1:00 pm75 °FScattered clouds.7 mph50%30.01 "HgN/A
12:30 pm77 °FScattered clouds.7 mph51%30.01 "HgN/A
12:00 pm75 °FPassing clouds.7 mph54%30.01 "HgN/A
11:30 am75 °FPassing clouds.7 mph57%30.01 "HgN/A
11:00 am73 °FPassing clouds.6 mph53%30.01 "HgN/A
10:00 am72 °FPassing clouds.3 mph65%30.01 "HgN/A
9:30 am70 °FSunny.1 mph64%30.01 "Hg10 mi
9:00 am68 °FSunny.1 mph69%30.01 "Hg10 mi
8:30 am66 °FSunny.1 mph68%30.01 "Hg10 mi
8:00 am64 °FSunny.2 mph78%29.98 "Hg10 mi
Weather by CustomWeather, © 2019

See weather overview